This demonstration page uses our WeatherBlox Daily Observations layout. Learn more.

Left ArrowRight Arrow

47.50024, -111.30081

Hourly Observations for May 25, 2015

Temp ( °F °C ) Dew Point ( °F °C ) Humidity (%) Winds ( mph kmh ) Pressure ( in mb ) Visibility ( mi km ) Precip ( " mm )
12:53 am 00:53 Clear 48 8.9 42 5.6 80 80 Calm 29.93 1014 10 16 0.00 0.00
1:53 am 01:53 Clear 44 6.7 41 5 89 89 SW 5 7 29.93 1014 10 16 0.00 0.00
2:53 am 02:53 Clear 45 7.2 41 5 86 86 SW 3 6 29.92 1013 10 16 0.00 0.00
3:53 am 03:53 Clear 44 6.7 40 4.4 85 85 ESE 3 6 29.92 1013 10 16 0.00 0.00
4:53 am 04:53 Clear 45 7.2 41 5 86 86 Calm 29.92 1013 10 16 0.00 0.00
5:53 am 05:53 Sunny 44 6.7 40 4.4 85 85 Calm 29.92 1013 10 16 0.00 0.00
6:53 am 06:53 Mostly Sunny 44 6.7 42 5.6 93 93 SW 6 9 29.92 1013 10 16 0.00 0.00
7:53 am 07:53 Sunny 51 10.6 45 7.2 80 80 SW 9 15 29.91 1013 10 16 0.00 0.00
8:53 am 08:53 Sunny 55 12.8 46 7.8 72 72 SW 7 11 29.90 1013 10 16 0.00 0.00
9:53 am 09:53 Sunny 59 15 46 7.8 62 62 S 3 6 29.89 1012 10 16 0.00 0.00
10:53 am 10:53 Sunny 64 17.8 46 7.8 52 52 ENE 6 9 29.88 1012 10 16 0.00 0.00
11:53 am 11:53 Sunny 65 18.3 46 7.8 51 51 VRB 5 7 29.87 1012 10 16 0.00 0.00
12:53 pm 12:53 Sunny 67 19.4 42 5.6 41 41 Calm 29.85 1011 10 16 0.00 0.00
1:53 pm 13:53 Mostly Sunny 68 20 41 5 38 38 VRB 3 6 29.85 1011 10 16 0.00 0.00
2:53 pm 14:53 Sunny 70 21.1 41 5 35 35 VRB 3 6 29.83 1010 10 16 0.00 0.00
3:53 pm 15:53 Mostly Cloudy 70 21.1 42 5.6 37 37 ESE 10 17 29.82 1010 10 16 0.00 0.00
4:53 pm 16:53 Sunny 71 21.7 43 6.1 36 36 E 10 17 29.80 1009 10 16 0.00 0.00
5:53 pm 17:53 Mostly Sunny 71 21.7 42 5.6 35 35 E 8 13 29.79 1009 10 16 0.00 0.00
6:53 pm 18:53 Sunny 68 20 42 5.6 39 39 E 9 15 29.80 1009 10 16 0.00 0.00
7:53 pm 19:53 Sunny 67 19.4 44 6.7 44 44 E 8 13 29.79 1009 10 16 0.00 0.00
8:53 pm 20:53 Mostly Sunny 60 15.6 46 7.8 60 60 NNE 7 11 29.80 1009 10 16 0.00 0.00
9:29 pm 21:29 Cloudy 59 15 46 7.8 62 62 W 23 37 29.77 1008 10 16 0.00 0.00
9:32 pm 21:32 Cloudy with Thunderstorms 59 15 46 8 63 63 W 23 37 29.77 1008 10 16 0.00 0.00
9:53 pm 21:53 Cloudy with Thunderstorms 56 13.3 48 8.9 75 75 WSW 22 35 29.86 1011 10 16 0.00 0.00
10:41 pm 22:41 Cloudy with Light Rain 52 11.1 50 10 93 93 SW 10 17 29.88 1012 7 11 0.04 1.02
10:53 pm 22:53 Cloudy with Rain 52 11.1 49 9.4 89 89 W 9 15 29.89 1012 4 6 0.07 1.78
11:53 pm 23:53 Cloudy with Light Rain 52 11.1 48 8.9 86 86 NNW 8 13 29.86 1011 10 16 0.18 4.57

Powered by AerisWeather